Location: *
(40.4000°N, 15.1200°E)
Time: 05:07:52
(UTC+00:00)

CZ-4C R/B - Pass Details

Date: 09 April 2020
Orbit: 637 x 1365 km, 63.4° (Epoch: 05 June)

Event Time Altitude Azimuth Distance (km) Brightness Sun altitude
Rises 20:52:16 0° 328° (NNW) 3,838 6.7 -33.2°
Reaches altitude 10° 20:54:50 10° 333° (NNW) 2,981 5.8 -33.6°
Enters shadow 21:01:42 54° 43° (NE) 1,474 3.3 -34.3°
